GW0084 Weather Reports


time (UTC)temp
F
wind
direction
speed
knots
gust
knots
rain 1hr
in
rain 24hr
in
rain mn
in
humidity
%
barometer
mb
20260505200043 59 248 2.6 9.6 0.00 0.00 0.00 39 1010.3
20260505194542 58 121 0.9 11.3 0.00 0.00 0.00 40 1010.2
20260505193041 59 263 4.3 13.0 0.00 0.00 0.00 39 1010.5
20260505191538 58 196 4.3 10.4 0.00 0.00 0.00 45 1010.5
20260505190039 55 293 2.6 11.3 0.00 0.00 0.00 50 1010.5
20260505184545 52 220 2.6 9.6 0.00 0.00 0.00 56 1010.6
20260505183107 53 234 5.2 20.0 0.00 0.00 0.00 49 1010.7
20260505181540 54 225 6.1 17.4 0.00 0.00 0.00 42 1010.2
20260505180050 55 226 5.2 13.9 0.00 0.00 0.00 40 1010.2
20260505174544 55 119 3.5 8.7 0.00 0.00 0.00 41 1010.2
20260505173050 55 151 2.6 8.7 0.00 0.00 0.00 40 1010.6
20260505171558 57 223 1.7 8.7 0.00 0.00 0.00 39 1010.6
20260505170040 56 0 0.0 7.0 0.00 0.00 0.00 41 1010.6
20260505164542 55 0 0.9 6.1 0.00 0.00 0.00 42 1010.9
20260505163044 54 189 0.9 4.3 0.00 0.00 0.00 42 1011.1
20260505161543 54 181 1.7 4.3 0.00 0.00 0.00 43 1011.1
20260505153051 53 333 0.9 4.3 0.00 0.00 0.00 45 1011.6
20260505151550 52 225 0.9 7.0 0.00 0.00 0.00 42 1011.7
20260505124542 50 244 0.9 6.1 0.00 0.00 0.00 49 1011.8
20260505123040 50 0 0.0 3.5 0.00 0.00 0.00 49 1011.8
20260505121545 50 253 0.9 4.3 0.00 0.00 0.00 48 1011.5
20260505120103 50 0 0.0 4.3 0.00 0.00 0.00 46 1011.4
20260505114540 50 0 0.9 7.0 0.00 0.00 0.00 45 1011.4
20260505113046 50 231 3.5 8.7 0.00 0.00 0.00 45 1011.4
20260505111543 50 0 0.0 3.5 0.00 0.00 0.00 42 1011.5
20260505101546 51 0 0.0 2.6 0.00 0.00 0.00 44 1011.3
20260505100043 51 0 0.0 3.5 0.00 0.00 0.00 43 1011.1
20260505094542 51 0 0.0 2.6 0.00 0.00 0.00 42 1011.1
20260505093043 52 0 0.0 1.7 0.00 0.00 0.00 41 1011.2
20260505091543 52 0 0.0 7.0 0.00 0.00 0.00 40 1011.4
20260505090046 52 285 0.9 7.8 0.00 0.00 0.00 39 1011.0
20260505084540 53 236 1.7 9.6 0.00 0.00 0.00 37 1011.1
20260505083037 53 262 1.7 7.8 0.00 0.00 0.00 38 1011.2
20260505081543 53 259 2.6 15.6 0.00 0.00 0.00 38 1011.6
20260505080042 53 210 4.3 15.6 0.00 0.00 0.00 37 1011.8
20260505074541 54 244 0.9 8.7 0.00 0.00 0.00 36 1011.7
20260505073058 54 318 1.7 9.6 0.00 0.00 0.00 35 1011.8
20260505071546 55 257 3.5 12.2 0.00 0.00 0.00 34 1011.6
20260505070044 55 259 1.7 9.6 0.00 0.00 0.00 33 1011.9
20260505064544 56 249 1.7 8.7 0.00 0.00 0.00 32 1011.9
20260505063041 56 0 0.9 8.7 0.00 0.00 0.00 31 1012.0
20260505061554 57 258 0.9 7.8 0.00 0.00 0.00 31 1011.9
20260505060045 57 0 0.9 6.1 0.00 0.00 0.00 31 1011.9
20260505054606 58 0 2.6 9.6 0.00 0.00 0.00 31 1012.0
20260505053058 58 210 1.7 8.7 0.00 0.00 0.00 32 1011.7
20260505051538 59 180 2.6 9.6 0.00 0.00 0.00 33 1011.6
20260505041555 59 0 0.0 4.3 0.00 0.00 0.00 32 1011.6
20260505040041 59 0 0.0 0.9 0.00 0.00 0.00 32 1011.6
20260505034549 59 0 0.0 4.3 0.00 0.00 0.00 31 1011.5
20260505033042 59 258 0.0 3.5 0.00 0.00 0.00 30 1011.6
20260505031553 60 225 1.7 7.0 0.00 0.00 0.00 30 1011.5
20260505030040 60 271 0.0 3.5 0.00 0.00 0.00 29 1011.2
20260505024544 60 275 0.9 5.2 0.00 0.00 0.00 28 1011.2
20260505023042 61 30 0.9 8.7 0.00 0.00 0.00 26 1011.0
20260505021542 61 223 2.6 11.3 0.00 0.00 0.00 25 1010.9
20260505020041 62 199 0.0 7.8 0.00 0.00 0.00 25 1010.9
20260505014540 62 260 2.6 10.4 0.00 0.00 0.00 24 1010.9
20260505013038 63 246 3.5 12.2 0.00 0.00 0.00 23 1010.6
20260505011544 63 228 3.5 7.8 0.00 0.00 0.00 21 1010.3
20260505010042 64 254 2.6 8.7 0.00 0.00 0.00 20 1010.4
20260505004548 64 228 2.6 10.4 0.00 0.00 0.00 19 1010.4
20260505003042 65 154 6.1 12.2 0.00 0.00 0.00 19 1010.4
20260505001548 65 234 3.5 10.4 0.00 0.00 0.00 19 1010.4
20260505000058 65 259 5.2 11.3 0.00 0.00 0.00 19 1010.4
20260504234541 65 262 5.2 13.0 0.00 0.00 0.00 20 1010.5
20260504233041 66 164 2.6 12.2 0.00 0.00 0.00 20 1010.5
20260504231539 67 339 5.2 13.9 0.00 0.00 0.00 20 1010.6
20260504230048 67 250 5.2 14.8 0.00 0.00 0.00 20 1010.9
20260504224546 69 265 2.6 10.4 0.00 0.00 0.00 19 1011.2
20260504223042 68 190 1.7 7.0 0.00 0.00 0.00 19 1011.4
20260504221553 67 85 1.7 11.3 0.00 0.00 0.00 19 1011.6
20260504220049 67 269 1.7 8.7 0.00 0.00 0.00 19 1011.6
20260504214544 67 252 1.7 10.4 0.00 0.00 0.00 19 1011.8
20260504213050 66 334 1.7 13.0 0.00 0.00 0.00 18 1012.1
20260504211550 65 259 2.6 14.8 0.00 0.00 0.00 17 1012.3
20260504210047 66 270 3.5 13.0 0.00 0.00 0.00 16 1012.6
20260504204546 67 205 2.6 13.0 0.00 0.00 0.00 14 1012.9
20260504203059 66 273 1.7 11.3 0.00 0.00 0.00 14 1012.9
20260504201550 66 214 5.2 12.2 0.00 0.00 0.00 13 1013.1